Flag for Indonesia Weather past 2 weeks in Manado, North Sulawesi, Indonesia

86 °F

Scattered clouds.

Feels Like: 97 °F
Forecast: 78 / 89 °F
Wind: 6 mph from Southwest

Location: Menado / Dr. Sam Ratulangi

Current Time: Nov 27, 2015 at 2:36:04 PM

Latest Report: Nov 27, 2015 at 2:00 PM

Visibility: 6 mi

Pressure: 29.77 "Hg

Humidity: 75%

Dew point: 77 °F

Location of ManadoLocation

Historic Weather in Manado — Graph


Manado temperature yesterday

Maximum temperature yesterday: 90 °F (at 10:00 AM)
Minimum temperature yesterday: 75 °F (at 3:00 AM)
Average temperature yesterday: 80 °F

Past Weeks' High & Low Weather Summary

High95 °F (Nov 24, 10:30 AM)100% (Nov 13, 2:00 AM)29.89 "Hg (Nov 13, 2:00 AM)
Low73 °F (Nov 13, 1:30 AM)49% (Nov 16, 2:00 PM)29.71 "Hg (Nov 21, 3:00 PM)
Average80 °F84%29.81 "Hg
* Reported Nov 12 1:00 PM — Nov 27 1:00 PM, Manado, Weather by CustomWeather, © 2015

Note: Actual official high and low records may vary slightly from our data, if they occured in-between our weather recording intervals... More about our weather records


Manado weather history for previous 24 hours

Time TempWeatherWind HumidityBarometerVisibility
1:00 PM
Fri, Nov 27
84 °FScattered clouds.6 mph74%29.80 "Hg6 mi
12:30 PM84 °FThunderstorms. Scattered clouds.7 mph74%29.80 "Hg5 mi
12:00 PM88 °FScattered clouds.7 mph66%29.80 "Hg6 mi
11:30 AM88 °FScattered clouds.7 mph66%29.83 "Hg6 mi
11:00 AM88 °FScattered clouds.6 mph70%29.83 "HgN/A
10:30 AM90 °FScattered clouds.6 mph67%29.83 "HgN/A
10:00 AM91 °FPassing clouds.2 mph59%29.86 "HgN/A
9:30 AM88 °FPassing clouds.3 mph66%29.86 "HgN/A
9:00 AM88 °FPassing clouds.3 mph66%29.86 "HgN/A
8:30 AM88 °FPassing clouds.2 mph66%29.86 "HgN/A
8:00 AM86 °FPassing clouds.No wind70%29.86 "HgN/A
7:30 AM84 °FPassing clouds.3 mph74%29.86 "HgN/A
7:00 AM82 °FPassing clouds.3 mph79%29.83 "HgN/A
6:00 AM75 °FPassing clouds.2 mph94%29.83 "Hg6 mi
5:30 AM75 °FPassing clouds.2 mph94%29.83 "Hg6 mi
5:00 AM73 °FPassing clouds.No wind100%29.83 "Hg5 mi
4:30 AM73 °FPassing clouds.1 mph100%29.80 "Hg5 mi
4:00 AMN/APassing clouds.1 mphN/A29.80 "Hg5 mi
3:30 AM75 °FPassing clouds.1 mph94%29.80 "Hg5 mi
3:00 AM75 °FPassing clouds.3 mph94%29.80 "Hg5 mi
2:30 AM75 °FPassing clouds.1 mph94%29.80 "Hg5 mi
2:00 AM75 °FPassing clouds.1 mph94%29.80 "Hg5 mi
1:30 AM75 °FPassing clouds.2 mph94%29.80 "Hg5 mi
1:00 AM75 °FPassing clouds.2 mph94%29.80 "Hg5 mi
12:30 AM75 °FPassing clouds.1 mph94%29.83 "Hg5 mi
12:00 AM75 °FPassing clouds.1 mph94%29.83 "Hg5 mi
11:30 PM
Thu, Nov 26
75 °FPassing clouds.No wind94%29.83 "Hg5 mi
11:00 PM75 °FPassing clouds.1 mph94%29.83 "Hg5 mi
10:30 PM75 °FPassing clouds.1 mph94%29.83 "Hg5 mi
10:00 PM75 °FPassing clouds.2 mph94%29.86 "Hg5 mi
9:30 PM75 °FPassing clouds.2 mph94%29.86 "Hg5 mi
9:00 PM75 °FPassing clouds.2 mph94%29.86 "Hg5 mi
8:30 PM75 °FPassing clouds.2 mph94%29.86 "Hg5 mi
8:00 PM75 °FPassing clouds.2 mph94%29.86 "Hg5 mi
7:30 PM75 °FPassing clouds.2 mph94%29.83 "Hg4 mi
7:00 PM75 °FPassing clouds.3 mph94%29.83 "Hg4 mi
6:30 PM75 °FRain. Passing clouds.3 mph94%29.83 "Hg4 mi
6:00 PM75 °FThunderstorms. Passing clouds.2 mph94%29.80 "Hg3 mi
5:30 PM77 °FThunderstorms. Passing clouds.17 mph89%29.80 "Hg4 mi
5:00 PM82 °FThunderstorms. Scattered clouds.3 mph74%29.80 "Hg5 mi
4:30 PM84 °FScattered clouds.5 mph74%29.77 "Hg6 mi
4:00 PM88 °FScattered clouds.2 mph66%29.74 "Hg6 mi
3:30 PM88 °FPassing clouds.2 mph70%29.74 "Hg6 mi
3:00 PM88 °FScattered clouds.1 mph70%29.77 "Hg6 mi
2:30 PM84 °FScattered clouds.3 mph79%29.77 "Hg6 mi
Weather by CustomWeather, © 2015

See weather overviewHow to use our weather pages